[[{"header":{"parameterUnit":"m.s-1","parameterCategory":2,"la1":30.2992,"la2":30.254,"lo1":-89.0895,"lo2":-89.0443,"dy":0.0025,"dx":0.0025,"nx":19,"ny":19,"refTime":"2026-03-08T21:00:00:Z","depth":"0","parameterNumber":2,"parameterNumberName":"U-component_of_CURRENTS"},"data":[0,0,0,-0.0181,-0.0184,-0.0291,-0.0291,-0.0248,-0.0247,0,0,0,0,0,0,0,0,0,0,0,-0.0115,-0.0115,-0.0181,-0.0185,-0.0291,-0.0291,-0.0248,-0.0247,0,0,0,0,0,0,0,0,0,0,0,-0.0114,-0.0115,-0.0116,-0.0185,-0.0291,-0.0291,-0.0248,-0.0206,0,0,0,0,0,0,0,0,0,0,-0.0123,-0.0095,-0.0115,-0.0116,-0.0186,-0.0291,-0.0291,-0.0206,-0.0209,-0.0156,0,-0.0175,0,-0.0231,-0.0243,-0.0242,0,0,0,-0.0159,-0.0093,-0.0132,-0.0116,-0.0188,-0.0291,-0.0236,-0.0209,-0.0212,-0.0159,-0.0176,-0.0176,-0.023,-0.0242,-0.0242,-0.0189,-0.0189,0,0,-0.0153,-0.012,-0.0131,-0.0135,-0.0215,-0.0233,-0.024,-0.0212,-0.0204,-0.0176,-0.0177,-0.0229,-0.0242,-0.0241,-0.0189,-0.0189,0,0,0,-0.0154,-0.0115,-0.0158,-0.0134,-0.018,-0.0236,-0.0244,-0.0205,-0.0223,-0.0177,-0.0229,-0.0241,-0.024,-0.0189,-0.0189,-0.022,0,0,0,-0.0149,-0.0119,-0.0155,-0.0134,-0.0181,-0.0221,-0.0237,-0.0223,-0.0224,-0.0229,-0.0241,-0.024,-0.0189,-0.0189,-0.0219,-0.0225,0,0,0,-0.011,-0.0115,-0.013,-0.0132,-0.0196,-0.0223,-0.0239,-0.0225,-0.0256,-0.0242,-0.024,-0.0189,-0.0189,-0.0219,-0.0224,-0.0246,0,0,0,-0.0068,-0.0091,-0.0128,-0.0165,-0.0195,-0.0246,-0.024,-0.0259,-0.0249,-0.0241,-0.0189,-0.0189,-0.0218,-0.0224,-0.0245,-0.0254,-0.0259,0,0,-0.0077,-0.0091,-0.0114,-0.0152,-0.0211,-0.023,-0.0257,-0.0241,-0.0225,-0.0181,-0.0181,-0.022,-0.0224,-0.0245,-0.0246,-0.0251,0,0,0,-0.0105,-0.012,-0.0144,-0.0188,-0.0229,-0.0258,-0.0259,-0.0257,-0.0241,-0.0228,-0.0208,-0.0209,-0.0222,-0.0226,-0.023,-0.0318,-0.0188,-0.0188,-0.0188,-0.0069,-0.0112,-0.0147,-0.02,-0.0224,-0.026,-0.0273,-0.0261,-0.0237,-0.024,-0.0227,-0.0251,-0.0254,-0.0257,-0.0348,-0.0221,-0.0221,-0.0221,-0.0221,-0.009,-0.0119,-0.0151,-0.0196,-0.0224,-0.0232,-0.0269,-0.027,-0.0271,-0.025,-0.0261,-0.0247,-0.0263,-0.0358,-0.0223,-0.0222,-0.0222,-0.0222,-0.0222,-0.0072,-0.0094,-0.0112,-0.0159,-0.0182,-0.022,-0.0249,-0.0267,-0.0288,-0.0298,-0.0295,-0.0295,-0.0386,-0.0302,-0.0302,-0.0302,-0.0302,-0.0302,-0.0302,-0.0051,-0.0077,-0.0084,-0.0127,-0.0138,-0.017,-0.0232,-0.0258,-0.0304,-0.0321,-0.0321,-0.0404,-0.0275,-0.0281,-0.0304,-0.0304,-0.0303,-0.0303,-0.0303,-0.0071,-0.0043,-0.007,-0.0073,-0.0105,-0.0121,-0.0195,-0.0272,-0.0308,-0.033,-0.0466,-0.034,-0.033,-0.0327,-0.0333,-0.0368,-0.0368,-0.0369,-0.0369,-0.0056,-0.0054,-0.0068,-0.007,-0.008,-0.0105,-0.0157,-0.0246,-0.0408,-0.0507,-0.0544,-0.0544,-0.0538,-0.0541,-0.0532,-0.0542,-0.063,-0.0631,-0.0631,-0.0069,-0.007,-0.0076,-0.0066,-0.0069,-0.0086,-0.0126,-0.0239,-0.0509,-0.0652,-0.067,-0.0659,-0.0667,-0.065,-0.0657,-0.0638,-0.0654,0,0]},{"header":{"parameterUnit":"m.s-1","parameterCategory":2,"la1":30.2992,"la2":30.254,"lo1":-89.0895,"lo2":-89.0443,"dy":0.0025,"dx":0.0025,"nx":19,"ny":19,"refTime":"2026-03-08T21:00:00:Z","depth":"0","parameterNumber":3,"parameterNumberName":"V-component_of_CURRENTS"},"data":[0,0,0,0.0197,0.02,0.0427,0.0429,0.0717,0.0719,0,0,0,0,0,0,0,0,0,0,0,0.0143,0.0144,0.0196,0.02,0.0427,0.0429,0.0717,0.0719,0,0,0,0,0,0,0,0,0,0,0,0.0142,0.0144,0.0145,0.0201,0.0427,0.0429,0.0716,0.0558,0,0,0,0,0,0,0,0,0,0,0.0343,0.0266,0.0143,0.0145,0.0202,0.0426,0.0429,0.0551,0.0568,0.0597,0,0.062,0,0.0642,0.0734,0.0734,0,0,0,0.0253,0.0252,0.0307,0.0145,0.0203,0.0426,0.034,0.0561,0.058,0.0619,0.0624,0.0634,0.0647,0.0735,0.0736,0.0875,0.0875,0,0,0.024,0.0197,0.0294,0.0318,0.0245,0.0332,0.0346,0.0573,0.0588,0.0625,0.064,0.0651,0.0736,0.0738,0.0875,0.0875,0,0,0,0.0169,0.0188,0.024,0.0307,0.033,0.0337,0.0354,0.058,0.0595,0.0643,0.0655,0.0738,0.074,0.0875,0.0875,0.0757,0,0,0,0.0164,0.0142,0.0233,0.0212,0.0324,0.0453,0.0354,0.0581,0.0606,0.0653,0.0738,0.0742,0.0875,0.0875,0.076,0.0701,0,0,0,0.0135,0.0139,0.0159,0.0209,0.028,0.045,0.0482,0.0588,0.061,0.0734,0.0743,0.0875,0.0875,0.0763,0.0707,0.0659,0,0,0,0.0094,0.0129,0.0158,0.0219,0.0277,0.0398,0.0481,0.0606,0.071,0.0739,0.0875,0.0875,0.0764,0.0711,0.0663,0.0562,0.0536,0,0,0.0115,0.0131,0.0172,0.0202,0.029,0.0371,0.0458,0.063,0.0712,0.081,0.0814,0.0759,0.0707,0.066,0.055,0.0524,0,0,0,0.0165,0.0177,0.0221,0.0275,0.0366,0.0411,0.0555,0.0606,0.0711,0.076,0.0788,0.076,0.0733,0.0681,0.0661,0.0886,0.0874,0.0874,0.0874,0.0103,0.0168,0.0215,0.0286,0.0345,0.0454,0.0504,0.0587,0.0683,0.0695,0.0685,0.0597,0.0541,0.0525,0.0759,0.0715,0.0714,0.0714,0.0714,0.0096,0.012,0.0169,0.0232,0.0276,0.0332,0.0424,0.0483,0.0527,0.0607,0.0587,0.0586,0.0496,0.0754,0.0707,0.0708,0.0709,0.071,0.071,0.0044,0.006,0.0096,0.014,0.0162,0.024,0.0241,0.0331,0.0409,0.0396,0.0377,0.0378,0.0586,0.0396,0.0395,0.0395,0.0394,0.0394,0.0394,-0.0027,0.0009,0.0005,0.0049,0.0053,0.0065,0.014,0.0155,0.0186,0.024,0.024,0.0584,0.0501,0.0492,0.0386,0.0387,0.0388,0.0389,0.039,-0.0066,-0.0066,-0.0074,-0.0077,-0.0071,-0.0108,-0.0046,-0.0058,-0.0027,-0.0047,0.034,0.0167,0.0197,0.0214,0.02,0.0025,0.0025,0.0025,0.0025,-0.0119,-0.0112,-0.0145,-0.0169,-0.0195,-0.0186,-0.028,-0.0249,0.0008,0.019,0.0322,0.0408,0.0412,0.0464,0.0476,0.0473,0.0371,0.0372,0.0373,-0.0161,-0.0165,-0.0207,-0.0217,-0.0245,-0.0287,-0.0394,-0.0366,0.0106,0.042,0.0658,0.0643,0.081,0.0799,0.0916,0.0914,0.0922,0,0]}],[{"header":{"parameterUnit":"m.s-1","parameterCategory":2,"la1":30.2992,"la2":30.254,"lo1":-89.0895,"lo2":-89.0443,"dy":0.0025,"dx":0.0025,"nx":19,"ny":19,"refTime":"2026-03-08T21:00:00:Z","depth":"2","parameterNumber":2,"parameterNumberName":"U-component_of_CURRENTS"},"data":[0,0,0,-0.1469,-0.147,-0.148,-0.148,-0.1406,-0.1405,0,0,0,0,0,0,0,0,0,0,0,-0.1457,-0.1457,-0.1469,-0.147,-0.148,-0.148,-0.1406,-0.1405,0,0,0,0,0,0,0,0,0,0,0,-0.1457,-0.1457,-0.1457,-0.147,-0.148,-0.148,-0.1406,-0.1417,0,0,0,0,0,0,0,0,0,0,-0.1417,-0.1409,-0.1457,-0.1457,-0.147,-0.148,-0.148,-0.1418,-0.1416,-0.138,0,-0.1386,0,-0.1401,-0.1399,-0.1399,0,0,0,-0.1458,-0.141,-0.1431,-0.1457,-0.147,-0.148,-0.1472,-0.1418,-0.1415,-0.1377,-0.1385,-0.1383,-0.1399,-0.1398,-0.1398,-0.1282,-0.1281,0,0,-0.1457,-0.1438,-0.1433,-0.1429,-0.1477,-0.1472,-0.1473,-0.1417,-0.1403,-0.1385,-0.1382,-0.1398,-0.1398,-0.1397,-0.1282,-0.1282,0,0,0,-0.1464,-0.1437,-0.146,-0.1431,-0.1444,-0.1472,-0.1473,-0.1405,-0.1418,-0.1382,-0.1397,-0.1397,-0.1396,-0.1283,-0.1282,-0.1301,0,0,0,-0.1463,-0.1443,-0.146,-0.1446,-0.1446,-0.1434,-0.1462,-0.1422,-0.1417,-0.1398,-0.1397,-0.1395,-0.1284,-0.1283,-0.1302,-0.1322,0,0,0,-0.1456,-0.1441,-0.1449,-0.1445,-0.1459,-0.1436,-0.1445,-0.1422,-0.1426,-0.1399,-0.1395,-0.1284,-0.1283,-0.1303,-0.1322,-0.1311,0,0,0,-0.1428,-0.1427,-0.1448,-0.1447,-0.1459,-0.146,-0.1446,-0.1437,-0.1416,-0.1397,-0.1284,-0.1282,-0.1303,-0.1323,-0.1312,-0.1299,-0.1295,0,0,-0.1414,-0.1424,-0.1427,-0.1447,-0.1459,-0.1457,-0.1424,-0.1398,-0.1374,-0.1295,-0.1293,-0.1301,-0.1322,-0.1311,-0.1213,-0.1213,0,0,0,-0.1415,-0.1418,-0.1424,-0.1436,-0.1445,-0.1428,-0.1403,-0.1381,-0.1326,-0.1358,-0.1266,-0.1278,-0.1271,-0.1262,-0.1261,-0.1275,-0.1276,-0.1276,-0.1276,-0.1354,-0.1386,-0.1385,-0.1413,-0.1409,-0.1395,-0.1376,-0.1329,-0.1303,-0.1277,-0.1267,-0.1236,-0.1225,-0.1224,-0.1229,-0.1229,-0.1229,-0.1229,-0.1229,-0.1331,-0.1329,-0.1359,-0.1373,-0.1371,-0.1343,-0.1317,-0.1307,-0.1257,-0.1243,-0.1235,-0.1249,-0.1225,-0.123,-0.123,-0.123,-0.1229,-0.1229,-0.1229,-0.1288,-0.1289,-0.1311,-0.1326,-0.132,-0.1313,-0.1308,-0.1294,-0.1271,-0.1269,-0.1234,-0.1234,-0.127,-0.125,-0.125,-0.125,-0.125,-0.125,-0.125,-0.1223,-0.1249,-0.1251,-0.1274,-0.128,-0.129,-0.1301,-0.1301,-0.1274,-0.1251,-0.125,-0.1243,-0.1242,-0.127,-0.1251,-0.1251,-0.125,-0.125,-0.125,-0.1161,-0.118,-0.1183,-0.1195,-0.1225,-0.1222,-0.1272,-0.1265,-0.126,-0.1238,-0.1235,-0.1235,-0.123,-0.1229,-0.1255,-0.1233,-0.1233,-0.1233,-0.1233,-0.1106,-0.1119,-0.1118,-0.1132,-0.1157,-0.1186,-0.1181,-0.1191,-0.1186,-0.1157,-0.116,-0.1148,-0.1151,-0.1139,-0.1141,-0.1164,-0.1119,-0.1119,-0.1119,-0.1056,-0.107,-0.1048,-0.1082,-0.1119,-0.1137,-0.1114,-0.1062,-0.1004,-0.1112,-0.1121,-0.1229,-0.122,-0.1221,-0.121,-0.121,-0.125,0,0]},{"header":{"parameterUnit":"m.s-1","parameterCategory":2,"la1":30.2992,"la2":30.254,"lo1":-89.0895,"lo2":-89.0443,"dy":0.0025,"dx":0.0025,"nx":19,"ny":19,"refTime":"2026-03-08T21:00:00:Z","depth":"2","parameterNumber":3,"parameterNumberName":"V-component_of_CURRENTS"},"data":[0,0,0,-0.0299,-0.03,-0.0328,-0.0328,-0.0202,-0.0201,0,0,0,0,0,0,0,0,0,0,0,-0.0293,-0.0294,-0.0299,-0.0301,-0.0328,-0.0328,-0.0202,-0.0201,0,0,0,0,0,0,0,0,0,0,0,-0.0293,-0.0294,-0.0294,-0.0301,-0.0328,-0.0328,-0.0203,-0.0219,0,0,0,0,0,0,0,0,0,0,-0.0211,-0.0246,-0.0293,-0.0294,-0.0301,-0.0328,-0.0328,-0.0221,-0.0218,-0.0148,0,-0.017,0,-0.0183,-0.019,-0.0189,0,0,0,-0.0287,-0.0249,-0.0245,-0.0294,-0.0301,-0.0328,-0.0312,-0.022,-0.0216,-0.0142,-0.0169,-0.0165,-0.0181,-0.0189,-0.0188,-0.001,-0.0009,0,0,-0.0286,-0.0299,-0.0249,-0.0244,-0.0328,-0.0311,-0.0313,-0.022,-0.0225,-0.0168,-0.0163,-0.0179,-0.0188,-0.0187,-0.0011,-0.001,0,0,0,-0.029,-0.0298,-0.03,-0.0248,-0.0266,-0.0312,-0.0314,-0.023,-0.0229,-0.0162,-0.0177,-0.0187,-0.0185,-0.0011,-0.001,-0.0065,0,0,0,-0.0289,-0.0302,-0.03,-0.0308,-0.0269,-0.0274,-0.0327,-0.0235,-0.0226,-0.0178,-0.0187,-0.0183,-0.0012,-0.0011,-0.0065,-0.0105,0,0,0,-0.0288,-0.0302,-0.0309,-0.0309,-0.0326,-0.0276,-0.0271,-0.0235,-0.0234,-0.0189,-0.0183,-0.0013,-0.0011,-0.0066,-0.0104,-0.007,0,0,0,-0.0293,-0.0328,-0.031,-0.0341,-0.0326,-0.0294,-0.0272,-0.0253,-0.022,-0.0186,-0.0012,-0.001,-0.0066,-0.0103,-0.007,-0.0022,-0.0017,0,0,-0.0337,-0.0334,-0.0347,-0.0331,-0.0331,-0.0288,-0.0245,-0.0207,-0.0159,-0.0031,-0.0028,-0.0065,-0.0104,-0.007,0.0079,0.008,0,0,0,-0.0359,-0.0369,-0.0365,-0.0363,-0.0326,-0.0282,-0.0225,-0.0175,-0.0099,-0.0135,-0.0014,-0.0036,-0.0014,0.0018,0.002,-0.0002,-0.0002,-0.0003,-0.0003,-0.0437,-0.0406,-0.0414,-0.0369,-0.0338,-0.0258,-0.0208,-0.0115,-0.0071,-0.0038,-0.0042,-0.0004,0.0031,0.0032,0.0012,0.0012,0.0012,0.0012,0.0012,-0.0484,-0.0491,-0.0433,-0.0435,-0.0364,-0.0312,-0.0174,-0.0139,-0.0033,-0.0018,0.0007,0.0006,0.0031,0.0008,0.0009,0.001,0.001,0.001,0.001,-0.0536,-0.0537,-0.0525,-0.0499,-0.0457,-0.0367,-0.0289,-0.0194,-0.0094,-0.0072,0.0005,0.0006,-0.0057,-0.0052,-0.0052,-0.0052,-0.0052,-0.0052,-0.0052,-0.061,-0.0588,-0.0601,-0.0566,-0.0559,-0.0505,-0.0362,-0.0275,-0.0127,-0.0043,-0.0041,-0.0024,-0.0022,-0.0057,-0.0052,-0.0052,-0.0052,-0.0052,-0.0052,-0.0693,-0.068,-0.0695,-0.0695,-0.0655,-0.0612,-0.0465,-0.026,-0.0149,-0.0068,0.0006,0.0005,0.0032,0.0033,0.0003,0.0023,0.0023,0.0023,0.0023,-0.0757,-0.0745,-0.0768,-0.077,-0.0739,-0.0659,-0.0513,-0.0237,-0.0015,0.0116,0.0112,0.013,0.0125,0.0159,0.0157,0.0129,0.0183,0.0183,0.0183,-0.0805,-0.0799,-0.0828,-0.0811,-0.0781,-0.0703,-0.0557,-0.0216,0.0134,0.0189,0.0133,0.0035,0.0051,0.0048,0.0093,0.0092,0.0045,0,0]}],[{"header":{"parameterUnit":"m.s-1","parameterCategory":2,"la1":30.2992,"la2":30.254,"lo1":-89.0895,"lo2":-89.0443,"dy":0.0025,"dx":0.0025,"nx":19,"ny":19,"refTime":"2026-03-08T21:00:00:Z","depth":"4","parameterNumber":2,"parameterNumberName":"U-component_of_CURRENTS"},"data":[0,0,0,-0.0741,-0.0742,-0.0784,-0.0784,-0.0874,-0.0874,0,0,0,0,0,0,0,0,0,0,0,-0.0732,-0.0732,-0.0741,-0.0742,-0.0784,-0.0784,-0.0874,-0.0874,0,0,0,0,0,0,0,0,0,0,0,-0.0732,-0.0732,-0.0732,-0.0742,-0.0784,-0.0784,-0.0873,-0.0835,0,0,0,0,0,0,0,0,0,0,-0.0791,-0.0771,-0.0732,-0.0732,-0.0742,-0.0784,-0.0784,-0.0833,-0.0837,-0.0862,0,-0.0867,0,-0.0868,-0.0881,-0.0881,0,0,0,-0.0751,-0.0768,-0.0779,-0.0732,-0.0743,-0.0783,-0.0767,-0.0835,-0.084,-0.0869,-0.0868,-0.0871,-0.0869,-0.0881,-0.0882,-0.1024,-0.1025,0,0,-0.0748,-0.0742,-0.0775,-0.0782,-0.0752,-0.0766,-0.0769,-0.0838,-0.0844,-0.0868,-0.0873,-0.0871,-0.0882,-0.0882,-0.1023,-0.1024,0,0,0,-0.0736,-0.074,-0.0749,-0.0778,-0.078,-0.0767,-0.077,-0.0841,-0.0843,-0.0873,-0.0872,-0.0882,-0.0883,-0.1022,-0.1024,-0.1112,0,0,0,-0.0735,-0.0732,-0.0748,-0.0745,-0.0779,-0.0805,-0.0771,-0.0839,-0.0846,-0.0871,-0.0882,-0.0884,-0.1021,-0.1023,-0.1108,-0.1092,0,0,0,-0.073,-0.0732,-0.0736,-0.0745,-0.0758,-0.0804,-0.0811,-0.084,-0.0845,-0.0881,-0.0884,-0.102,-0.1023,-0.1103,-0.1087,-0.1074,0,0,0,-0.0724,-0.071,-0.0736,-0.0727,-0.0757,-0.0809,-0.081,-0.0864,-0.0899,-0.0883,-0.1021,-0.1023,-0.1102,-0.1084,-0.1072,-0.0898,0,0,0,-0.0697,-0.0707,-0.0702,-0.0725,-0.0754,-0.0804,-0.0876,-0.0925,-0.0941,-0.1,-0.1003,-0.1109,-0.1086,-0.1074,-0.1025,0,0,0,0,-0.0687,-0.0683,-0.0694,-0.0722,-0.0776,-0.0853,-0.0919,-0.0975,-0.1071,-0.0968,-0.1127,-0.1109,-0.1098,-0.0993,-0.1034,-0.1033,-0.1033,-0.1033,-0.1033,-0.0637,-0.067,-0.0695,-0.0749,-0.0802,-0.0917,-0.0993,-0.1088,-0.1116,-0.1191,-0.1198,-0.1263,-0.1162,-0.1243,-0.1244,-0.1244,-0.1245,-0.1245,-0.1245,-0.0593,-0.0618,-0.0707,-0.0764,-0.0885,-0.0994,-0.1127,-0.1186,-0.1279,-0.1297,-0.1284,-0.1115,-0.1254,-0.1253,-0.1251,-0.125,-0.1249,-0.1249,-0.1248,-0.0551,-0.0583,-0.0657,-0.0791,-0.0948,-0.1091,-0.1141,-0.1242,-0.1342,-0.1351,-0.1201,-0.129,-0.1259,-0.1353,-0.1353,-0.1353,-0.1353,-0.1353,-0.1353,-0.0501,-0.0567,-0.0658,-0.082,-0.0915,-0.1047,-0.1167,-0.1187,-0.1278,-0.1237,-0.1359,-0.1297,-0.1294,-0.1264,-0.1352,-0.1352,-0.1352,-0.1352,-0.1352,-0.0439,-0.051,-0.0599,-0.0685,-0.0834,-0.0873,-0.1005,-0.1066,-0.1064,-0.1081,-0.1163,-0.1172,-0.1098,-0.1098,-0.1057,-0.1088,-0.1086,-0.1084,0,-0.0419,-0.0446,-0.0543,-0.0563,-0.0613,-0.0712,-0.0698,-0.0801,-0.093,-0.0898,-0.1047,-0.1134,-0.1142,-0.1052,-0.1049,-0.0997,0,0,0,-0.0399,-0.0428,-0.0455,-0.0477,-0.0478,-0.0543,-0.07,-0.0722,-0.0909,-0.0933,-0.1034,-0.1047,-0.121,-0.1349,-0.1255,-0.1251,-0.1195,0,0]},{"header":{"parameterUnit":"m.s-1","parameterCategory":2,"la1":30.2992,"la2":30.254,"lo1":-89.0895,"lo2":-89.0443,"dy":0.0025,"dx":0.0025,"nx":19,"ny":19,"refTime":"2026-03-08T21:00:00:Z","depth":"4","parameterNumber":3,"parameterNumberName":"V-component_of_CURRENTS"},"data":[0,0,0,0.0017,0.0016,-0.0009,-0.0009,0.0,0.0001,0,0,0,0,0,0,0,0,0,0,0,0.003,0.003,0.0017,0.0016,-0.0009,-0.0009,0.0,0.0001,0,0,0,0,0,0,0,0,0,0,0,0.003,0.003,0.0029,0.0016,-0.0009,-0.0009,0.0,0.001,0,0,0,0,0,0,0,0,0,0,0.003,0.0032,0.003,0.0029,0.0016,-0.0009,-0.0009,0.001,0.001,0.0023,0,0.0017,0,0.0007,0.0002,0.0002,0,0,0,0.002,0.0033,0.0026,0.0029,0.0016,-0.0009,0.0003,0.001,0.0009,0.0022,0.0017,0.0017,0.0007,0.0002,0.0002,0.0001,0.0001,0,0,0.0022,0.0026,0.0027,0.0026,0.0008,0.0004,0.0003,0.0009,0.0008,0.0017,0.0017,0.0007,0.0002,0.0002,0.0001,0.0001,0,0,0,0.0023,0.0027,0.002,0.0026,0.0016,0.0003,0.0002,0.0008,0.0006,0.0017,0.0007,0.0002,0.0002,0.0001,0.0001,-0.0039,0,0,0,0.0024,0.0027,0.002,0.0023,0.0016,0.0005,0.0001,0.0005,0.0005,0.0007,0.0002,0.0003,0.0001,0.0001,-0.0038,-0.011,0,0,0,0.0031,0.0028,0.0024,0.0023,0.0009,0.0005,0.0002,0.0005,-0.0001,0.0002,0.0003,0.0001,0.0001,-0.0036,-0.0106,-0.0049,0,0,0,0.0037,-0.0001,0.0025,-0.003,0.0009,-0.0042,0.0002,-0.0023,-0.0027,0.0002,0.0001,0.0001,-0.0036,-0.0103,-0.0048,-0.003,0,0,0,-0.0016,-0.0007,-0.0044,-0.0023,-0.0098,-0.0038,-0.0092,-0.0068,-0.0023,0.0004,0.0003,-0.0038,-0.0105,-0.0049,-0.0051,0,0,0,0,-0.0066,-0.0087,-0.0109,-0.0141,-0.0157,-0.0165,-0.013,-0.0092,-0.005,-0.0027,-0.0034,-0.0077,-0.0039,-0.0025,-0.0001,-0.0001,-0.0001,-0.0001,-0.0001,-0.0115,-0.0142,-0.0211,-0.024,-0.0262,-0.0244,-0.0228,-0.0163,-0.0106,-0.0078,-0.0104,-0.0094,-0.0081,-0.0068,-0.0068,-0.0068,-0.0069,-0.0069,-0.0069,-0.0197,-0.024,-0.0273,-0.0345,-0.0351,-0.037,-0.0308,-0.0248,-0.0175,-0.0141,-0.0098,-0.0065,-0.0073,-0.0072,-0.0071,-0.0071,-0.0071,-0.007,-0.007,-0.0219,-0.0247,-0.0293,-0.0391,-0.044,-0.0436,-0.042,-0.0358,-0.0234,-0.0217,-0.0119,-0.0112,-0.0111,-0.0148,-0.0148,-0.0148,-0.0148,-0.0149,-0.0149,-0.0215,-0.0269,-0.0342,-0.0436,-0.0489,-0.0516,-0.0483,-0.0408,-0.0296,-0.0202,-0.0214,-0.012,-0.0117,-0.0114,-0.015,-0.015,-0.0149,-0.0149,-0.0149,-0.0245,-0.0258,-0.0367,-0.0432,-0.0548,-0.056,-0.054,-0.0387,-0.0295,-0.0176,-0.0151,-0.015,-0.0129,-0.0126,-0.0122,-0.0161,-0.0161,-0.0161,0,-0.0245,-0.0265,-0.0386,-0.0479,-0.0557,-0.0572,-0.0467,-0.0376,-0.0238,-0.0239,-0.0257,-0.0237,-0.0233,-0.0217,-0.0213,-0.0214,0,0,0,-0.0262,-0.0285,-0.0363,-0.0457,-0.0551,-0.0465,-0.0433,-0.0373,-0.0282,-0.0173,-0.0158,-0.0159,-0.0172,-0.0153,-0.0118,-0.0115,-0.0109,0,0]}]]